LVIRU SAZM-SADF

Flight info

Callsign LVIRU
Flight time 1h 4m
Altitude 20000
Route SAZM DCT PULPA W31 TENIL DCT SADF
Aircraft TBM8/L-S/C

Departure

Time 2026-04-23 23:17
Airport Ástor Piazzola International Airport (SAZM)

Arrival

Time 2026-04-24 00:21
Airport San Fernando Airport (SADF)
Time Latitude Longitude Altitude Speed Heading
2026-04-23 22:57 -37.93418 -57.57972 48 ft 0 kts 301°
2026-04-23 23:11 -37.93412 -57.57978 48 ft 5 kts 352°
2026-04-23 23:11 -37.93400 -57.57940 48 ft 5 kts 101°
2026-04-23 23:12 -37.93410 -57.57903 48 ft 4 kts 115°
2026-04-23 23:12 -37.93418 -57.57883 48 ft 0 kts 115°
2026-04-23 23:12 -37.93419 -57.57880 48 ft 4 kts 117°
2026-04-23 23:12 -37.93482 -57.57739 48 ft 34 kts 120°
2026-04-23 23:13 -37.93624 -57.57423 48 ft 45 kts 119°
2026-04-23 23:13 -37.93766 -57.57086 48 ft 40 kts 114°
2026-04-23 23:13 -37.93890 -57.56804 48 ft 34 kts 119°
2026-04-23 23:13 -37.94004 -57.56562 48 ft 29 kts 120°
2026-04-23 23:14 -37.94010 -57.56407 48 ft 8 kts 63°
2026-04-23 23:14 -37.94009 -57.56405 48 ft 0 kts 63°
2026-04-23 23:15 -37.93947 -57.56318 48 ft 21 kts 27°
2026-04-23 23:15 -37.93918 -57.56344 47 ft 10 kts 296°
2026-04-23 23:15 -37.93887 -57.56408 48 ft 27 kts 302°
2026-04-23 23:16 -37.93688 -57.56806 50 ft 72 kts 302°
2026-04-23 23:16 -37.93388 -57.57428 52 ft 91 kts 299°
2026-04-23 23:16 -37.93036 -57.58123 109 ft 97 kts 302°
2026-04-23 23:16 -37.92658 -57.58932 234 ft 116 kts 296°
2026-04-23 23:17 -37.92363 -57.59907 420 ft 121 kts 298°
2026-04-23 23:17 -37.91898 -57.60874 584 ft 131 kts 304°
2026-04-23 23:17 -37.91464 -57.61927 711 ft 140 kts 290°
2026-04-23 23:17 -37.90985 -57.63060 718 ft 139 kts 307°
2026-04-23 23:18 -37.90446 -57.63978 1195 ft 130 kts 303°
2026-04-23 23:18 -37.89930 -57.64887 1647 ft 118 kts 300°
2026-04-23 23:18 -37.89501 -57.65794 1754 ft 131 kts 293°
2026-04-23 23:18 -37.89152 -57.66758 2264 ft 107 kts 289°
2026-04-23 23:19 -37.88811 -57.67627 2502 ft 116 kts 297°
2026-04-23 23:19 -37.88394 -57.68547 2658 ft 126 kts 307°
2026-04-23 23:19 -37.87731 -57.69289 2971 ft 129 kts 302°
2026-04-23 23:19 -37.87229 -57.70284 3335 ft 139 kts 297°
2026-04-23 23:20 -37.86685 -57.71338 3699 ft 146 kts 297°
2026-04-23 23:20 -37.86136 -57.72440 4101 ft 149 kts 296°
2026-04-23 23:20 -37.85533 -57.73516 4526 ft 155 kts 309°
2026-04-23 23:20 -37.84528 -57.74131 4942 ft 170 kts 339°
2026-04-23 23:21 -37.83308 -57.74115 5358 ft 178 kts 354°
2026-04-23 23:21 -37.82086 -57.74018 5779 ft 178 kts 352°
2026-04-23 23:21 -37.80850 -57.73939 6207 ft 178 kts 352°
2026-04-23 23:21 -37.79608 -57.73856 6629 ft 179 kts 352°
2026-04-23 23:22 -37.78361 -57.73772 7033 ft 180 kts 351°
2026-04-23 23:22 -37.77111 -57.73687 7448 ft 180 kts 351°
2026-04-23 23:22 -37.75857 -57.73604 7862 ft 181 kts 351°
2026-04-23 23:22 -37.74600 -57.73520 8285 ft 181 kts 351°
2026-04-23 23:23 -37.73345 -57.73434 8714 ft 179 kts 351°
2026-04-23 23:23 -37.72104 -57.73350 9146 ft 178 kts 350°
2026-04-23 23:23 -37.70868 -57.73270 9579 ft 177 kts 350°
2026-04-23 23:23 -37.69658 -57.73190 10011 ft 176 kts 349°
2026-04-23 23:24 -37.68445 -57.73109 10411 ft 174 kts 349°
2026-04-23 23:24 -37.67241 -57.73029 10817 ft 172 kts 349°
2026-04-23 23:24 -37.66061 -57.72951 11220 ft 170 kts 348°
2026-04-23 23:24 -37.64885 -57.72874 11636 ft 168 kts 348°
2026-04-23 23:25 -37.63722 -57.72796 12054 ft 166 kts 348°
2026-04-23 23:25 -37.62589 -57.72721 12474 ft 164 kts 347°
2026-04-23 23:25 -37.61456 -57.72646 12905 ft 162 kts 347°
2026-04-23 23:25 -37.60337 -57.72572 13340 ft 160 kts 346°
2026-04-23 23:26 -37.59233 -57.72499 13779 ft 157 kts 346°
2026-04-23 23:26 -37.58153 -57.72427 14189 ft 154 kts 345°
2026-04-23 23:26 -37.57093 -57.72357 14585 ft 151 kts 345°
2026-04-23 23:26 -37.56073 -57.72289 14979 ft 147 kts 344°
2026-04-23 23:27 -37.55070 -57.72223 15374 ft 142 kts 343°
2026-04-23 23:27 -37.54101 -57.72159 15779 ft 136 kts 342°
2026-04-23 23:27 -37.53175 -57.72096 16190 ft 129 kts 341°
2026-04-23 23:27 -37.52309 -57.72037 16596 ft 119 kts 339°
2026-04-23 23:28 -37.51522 -57.71986 16999 ft 106 kts 336°
2026-04-23 23:28 -37.50859 -57.71939 17386 ft 84 kts 330°
2026-04-23 23:28 -37.50314 -57.71956 17439 ft 88 kts 328°
2026-04-23 23:28 -37.49546 -57.71866 17406 ft 123 kts 345°
2026-04-23 23:29 -37.48695 -57.71768 17629 ft 124 kts 339°
2026-04-23 23:29 -37.47811 -57.71719 17830 ft 133 kts 341°
2026-04-23 23:29 -37.46855 -57.71668 18028 ft 142 kts 342°
2026-04-23 23:29 -37.45826 -57.71605 18229 ft 153 kts 343°
2026-04-23 23:30 -37.44723 -57.71538 18412 ft 164 kts 345°
2026-04-23 23:30 -37.43561 -57.71461 18584 ft 174 kts 346°
2026-04-23 23:30 -37.42313 -57.71377 18745 ft 184 kts 347°
2026-04-23 23:30 -37.40997 -57.71290 18908 ft 193 kts 348°
2026-04-23 23:31 -37.39626 -57.71199 19055 ft 201 kts 348°
2026-04-23 23:31 -37.38218 -57.71106 19204 ft 208 kts 349°
2026-04-23 23:31 -37.36753 -57.71008 19352 ft 214 kts 349°
2026-04-23 23:31 -37.35246 -57.70889 19513 ft 219 kts 350°
2026-04-23 23:32 -37.33707 -57.70761 19659 ft 224 kts 351°
2026-04-23 23:32 -37.32154 -57.70638 19806 ft 227 kts 351°
2026-04-23 23:32 -37.30566 -57.70514 19954 ft 230 kts 351°
2026-04-23 23:32 -37.28953 -57.70387 20101 ft 233 kts 351°
2026-04-23 23:33 -37.27339 -57.70260 20247 ft 235 kts 351°
2026-04-23 23:33 -37.25702 -57.70132 20395 ft 236 kts 351°
2026-04-23 23:33 -37.24048 -57.70002 20548 ft 238 kts 351°
2026-04-23 23:33 -37.22392 -57.69873 20696 ft 239 kts 351°
2026-04-23 23:34 -37.20747 -57.69744 20841 ft 240 kts 351°
2026-04-23 23:34 -37.19080 -57.69614 20989 ft 240 kts 351°
2026-04-23 23:34 -37.17389 -57.69485 21015 ft 246 kts 351°
2026-04-23 23:34 -37.15668 -57.69350 21092 ft 248 kts 352°
2026-04-23 23:35 -37.13927 -57.69214 21099 ft 253 kts 352°
2026-04-23 23:35 -37.12153 -57.69075 21101 ft 257 kts 352°
2026-04-23 23:35 -37.10355 -57.68934 21105 ft 260 kts 352°
2026-04-23 23:35 -37.08543 -57.68792 21104 ft 262 kts 352°
2026-04-23 23:36 -37.06741 -57.68653 21107 ft 264 kts 353°
2026-04-23 23:36 -37.04900 -57.68509 21106 ft 265 kts 353°
2026-04-23 23:36 -37.03050 -57.68364 21108 ft 266 kts 353°
2026-04-23 23:36 -37.01192 -57.68220 21108 ft 267 kts 353°
2026-04-23 23:37 -36.99358 -57.68106 21108 ft 264 kts 348°
2026-04-23 23:37 -36.97548 -57.68301 21106 ft 260 kts 344°
2026-04-23 23:37 -36.95736 -57.68507 21111 ft 261 kts 345°
2026-04-23 23:37 -36.93917 -57.68694 21104 ft 262 kts 345°
2026-04-23 23:38 -36.92118 -57.68882 21106 ft 262 kts 345°
2026-04-23 23:38 -36.90297 -57.69078 21088 ft 262 kts 345°
2026-04-23 23:38 -36.88479 -57.69274 21103 ft 262 kts 345°
2026-04-23 23:38 -36.86659 -57.69468 21108 ft 262 kts 345°
2026-04-23 23:39 -36.84835 -57.69663 21107 ft 262 kts 345°
2026-04-23 23:39 -36.83010 -57.69858 21111 ft 262 kts 345°
2026-04-23 23:39 -36.81190 -57.70052 21106 ft 263 kts 345°
2026-04-23 23:39 -36.79362 -57.70248 21109 ft 263 kts 345°
2026-04-23 23:40 -36.77540 -57.70442 21110 ft 263 kts 345°
2026-04-23 23:40 -36.75739 -57.70634 21109 ft 263 kts 345°
2026-04-23 23:40 -36.73907 -57.70829 21108 ft 263 kts 345°
2026-04-23 23:40 -36.72073 -57.71025 21109 ft 263 kts 345°
2026-04-23 23:41 -36.70251 -57.71219 21109 ft 263 kts 345°
2026-04-23 23:41 -36.68440 -57.71411 21111 ft 263 kts 345°
2026-04-23 23:41 -36.66614 -57.71606 21106 ft 263 kts 345°
2026-04-23 23:41 -36.64786 -57.71800 21115 ft 264 kts 345°
2026-04-23 23:42 -36.62955 -57.71995 21117 ft 264 kts 345°
2026-04-23 23:42 -36.61126 -57.72189 21114 ft 264 kts 345°
2026-04-23 23:42 -36.59296 -57.72383 21115 ft 264 kts 345°
2026-04-23 23:42 -36.57486 -57.72575 21115 ft 264 kts 345°
2026-04-23 23:43 -36.55650 -57.72770 21118 ft 264 kts 345°
2026-04-23 23:43 -36.53820 -57.72964 21116 ft 264 kts 345°
2026-04-23 23:43 -36.51982 -57.73159 21118 ft 264 kts 345°
2026-04-23 23:43 -36.50168 -57.73351 21116 ft 264 kts 345°
2026-04-23 23:44 -36.48335 -57.73545 21118 ft 264 kts 345°
2026-04-23 23:44 -36.46495 -57.73740 21116 ft 264 kts 345°
2026-04-23 23:44 -36.44662 -57.73933 21115 ft 264 kts 345°
2026-04-23 23:44 -36.42849 -57.74125 21114 ft 264 kts 345°
2026-04-23 23:45 -36.41013 -57.74320 21118 ft 264 kts 345°
2026-04-23 23:45 -36.39174 -57.74513 21116 ft 265 kts 345°
2026-04-23 23:45 -36.37337 -57.74708 21115 ft 265 kts 345°
2026-04-23 23:45 -36.35498 -57.74902 21119 ft 265 kts 345°
2026-04-23 23:46 -36.33661 -57.75095 21119 ft 265 kts 345°
2026-04-23 23:46 -36.31818 -57.75290 21121 ft 265 kts 345°
2026-04-23 23:46 -36.30002 -57.75481 21124 ft 265 kts 345°
2026-04-23 23:46 -36.28155 -57.75675 21121 ft 265 kts 345°
2026-04-23 23:47 -36.26306 -57.75870 21122 ft 265 kts 345°
2026-04-23 23:47 -36.24462 -57.76064 21119 ft 266 kts 345°
2026-04-23 23:47 -36.22639 -57.76255 21121 ft 266 kts 345°
2026-04-23 23:47 -36.20792 -57.76450 21119 ft 266 kts 345°
2026-04-23 23:48 -36.18942 -57.76644 21125 ft 266 kts 345°
2026-04-23 23:48 -36.17110 -57.76836 21121 ft 266 kts 345°
2026-04-23 23:48 -36.15260 -57.77030 21123 ft 266 kts 345°
2026-04-23 23:48 -36.13410 -57.77224 21120 ft 267 kts 345°
2026-04-23 23:49 -36.09704 -57.77613 21128 ft 267 kts 345°
2026-04-23 23:49 -36.07853 -57.77807 21125 ft 267 kts 345°
2026-04-23 23:49 -36.06021 -57.77998 21125 ft 267 kts 345°
2026-04-23 23:50 -36.04170 -57.78192 21127 ft 267 kts 345°
2026-04-23 23:50 -36.02314 -57.78387 21129 ft 267 kts 345°
2026-04-23 23:50 -36.00464 -57.78580 21130 ft 267 kts 345°
2026-04-23 23:50 -35.98609 -57.78773 21125 ft 267 kts 345°
2026-04-23 23:51 -35.96753 -57.78967 21129 ft 267 kts 345°
2026-04-23 23:51 -35.94897 -57.79161 21128 ft 268 kts 345°
2026-04-23 23:51 -35.93040 -57.79355 21127 ft 268 kts 345°
2026-04-23 23:51 -35.91178 -57.79548 21127 ft 268 kts 345°
2026-04-23 23:52 -35.89340 -57.79740 21130 ft 268 kts 345°
2026-04-23 23:52 -35.87480 -57.79934 21131 ft 268 kts 345°
2026-04-23 23:52 -35.85613 -57.80129 21130 ft 268 kts 345°
2026-04-23 23:52 -35.84383 -57.80256 21132 ft 268 kts 345°
2026-04-23 23:53 -35.82513 -57.80451 21131 ft 268 kts 345°
2026-04-23 23:53 -35.80648 -57.80645 21135 ft 268 kts 345°
2026-04-23 23:53 -35.78784 -57.80839 21129 ft 269 kts 345°
2026-04-23 23:53 -35.76936 -57.81031 21134 ft 269 kts 345°
2026-04-23 23:54 -35.75062 -57.81226 21129 ft 269 kts 346°
2026-04-23 23:54 -35.73195 -57.81420 21130 ft 269 kts 346°
2026-04-23 23:54 -35.71323 -57.81614 21134 ft 269 kts 346°
2026-04-23 23:54 -35.69449 -57.81808 21130 ft 269 kts 345°
2026-04-23 23:55 -35.67605 -57.81999 21136 ft 270 kts 346°
2026-04-23 23:55 -35.65732 -57.82193 21132 ft 270 kts 346°
2026-04-23 23:55 -35.63857 -57.82388 21135 ft 270 kts 346°
2026-04-23 23:55 -35.61981 -57.82582 21132 ft 270 kts 346°
2026-04-23 23:56 -35.60124 -57.82774 21135 ft 270 kts 346°
2026-04-23 23:56 -35.58246 -57.82968 21134 ft 270 kts 346°
2026-04-23 23:56 -35.56373 -57.83162 21132 ft 270 kts 346°
2026-04-23 23:56 -35.54495 -57.83355 21133 ft 270 kts 346°
2026-04-23 23:57 -35.52618 -57.83556 21134 ft 270 kts 345°
2026-04-23 23:57 -35.50745 -57.83779 21133 ft 270 kts 345°
2026-04-23 23:57 -35.48893 -57.83997 21134 ft 270 kts 345°
2026-04-23 23:57 -35.47020 -57.84210 21133 ft 270 kts 345°
2026-04-23 23:58 -35.45146 -57.84423 21135 ft 270 kts 345°
2026-04-23 23:58 -35.43263 -57.84639 21135 ft 270 kts 345°
2026-04-23 23:58 -35.41386 -57.84855 21137 ft 270 kts 345°
2026-04-23 23:58 -35.39532 -57.85067 21134 ft 271 kts 345°
2026-04-23 23:59 -35.37645 -57.85283 21138 ft 271 kts 345°
2026-04-23 23:59 -35.35773 -57.85497 21135 ft 271 kts 345°
2026-04-23 23:59 -35.33912 -57.85670 21136 ft 273 kts 348°
2026-04-23 23:59 -35.32131 -57.86178 21139 ft 255 kts 324°
2026-04-24 00:00 -35.30873 -57.87583 21148 ft 241 kts 299°
2026-04-24 00:00 -35.30044 -57.89349 21154 ft 239 kts 295°
2026-04-24 00:00 -35.29159 -57.91092 21159 ft 242 kts 300°
2026-04-24 00:00 -35.28070 -57.92675 21154 ft 245 kts 308°
2026-04-24 00:01 -35.26826 -57.94125 21146 ft 247 kts 310°
2026-04-24 00:01 -35.25585 -57.95572 21152 ft 246 kts 309°
2026-04-24 00:01 -35.24371 -57.97066 20969 ft 252 kts 308°
2026-04-24 00:01 -35.23145 -57.98543 20699 ft 238 kts 310°
2026-04-24 00:02 -35.22009 -57.99893 20422 ft 222 kts 309°
2026-04-24 00:02 -35.20951 -58.01212 20140 ft 213 kts 308°
2026-04-24 00:02 -35.19925 -58.02485 19866 ft 211 kts 308°
2026-04-24 00:02 -35.18861 -58.03815 19548 ft 226 kts 309°
2026-04-24 00:03 -35.17713 -58.05204 19198 ft 238 kts 311°
2026-04-24 00:03 -35.16510 -58.06644 18856 ft 245 kts 311°
2026-04-24 00:03 -35.15283 -58.08129 18511 ft 250 kts 311°
2026-04-24 00:03 -35.14042 -58.09637 18130 ft 253 kts 311°
2026-04-24 00:04 -35.12808 -58.11131 17736 ft 252 kts 311°
2026-04-24 00:04 -35.11565 -58.12636 17343 ft 250 kts 311°
2026-04-24 00:04 -35.10335 -58.14133 16957 ft 248 kts 311°
2026-04-24 00:04 -35.09112 -58.15618 16577 ft 247 kts 311°
2026-04-24 00:05 -35.07907 -58.17078 16216 ft 246 kts 311°
2026-04-24 00:05 -35.06694 -58.18547 15835 ft 245 kts 311°
2026-04-24 00:05 -35.05485 -58.20011 15468 ft 244 kts 311°
2026-04-24 00:05 -35.04282 -58.21467 15102 ft 243 kts 311°
2026-04-24 00:06 -35.03088 -58.22921 14742 ft 248 kts 311°
2026-04-24 00:06 -35.01842 -58.24444 14393 ft 256 kts 311°
2026-04-24 00:06 -35.00547 -58.25995 14037 ft 261 kts 312°
2026-04-24 00:06 -34.99261 -58.27538 13664 ft 263 kts 312°
2026-04-24 00:07 -34.97951 -58.29121 13272 ft 264 kts 312°
2026-04-24 00:07 -34.96643 -58.30700 12887 ft 265 kts 312°
2026-04-24 00:07 -34.95332 -58.32280 12509 ft 264 kts 312°
2026-04-24 00:07 -34.94027 -58.33854 12123 ft 264 kts 312°
2026-04-24 00:08 -34.92750 -58.35367 11755 ft 247 kts 313°
2026-04-24 00:08 -34.91567 -58.36785 11386 ft 236 kts 312°
2026-04-24 00:08 -34.90426 -58.38187 11018 ft 230 kts 312°
2026-04-24 00:08 -34.89301 -58.39551 10667 ft 227 kts 312°
2026-04-24 00:09 -34.88195 -58.40861 10198 ft 210 kts 314°
2026-04-24 00:09 -34.87208 -58.42020 9631 ft 187 kts 312°
2026-04-24 00:09 -34.86311 -58.43124 9050 ft 185 kts 311°
2026-04-24 00:09 -34.85388 -58.44266 8492 ft 192 kts 313°
2026-04-24 00:10 -34.84402 -58.45461 7958 ft 205 kts 313°
2026-04-24 00:10 -34.83380 -58.46670 7435 ft 208 kts 314°
2026-04-24 00:10 -34.82341 -58.47906 6919 ft 209 kts 314°
2026-04-24 00:10 -34.81303 -58.49156 6388 ft 215 kts 314°
2026-04-24 00:11 -34.80209 -58.50497 5844 ft 229 kts 314°
2026-04-24 00:11 -34.79064 -58.51858 5318 ft 234 kts 315°
2026-04-24 00:11 -34.77892 -58.53245 4784 ft 236 kts 316°
2026-04-24 00:11 -34.76718 -58.54651 4235 ft 236 kts 316°
2026-04-24 00:12 -34.75551 -58.56052 3693 ft 234 kts 316°
2026-04-24 00:12 -34.74403 -58.57426 3157 ft 233 kts 316°
2026-04-24 00:12 -34.73261 -58.58809 2993 ft 229 kts 316°
2026-04-24 00:12 -34.72151 -58.60144 2988 ft 220 kts 316°
2026-04-24 00:13 -34.71069 -58.61430 2979 ft 216 kts 317°
2026-04-24 00:13 -34.70000 -58.62706 2984 ft 214 kts 316°
2026-04-24 00:13 -34.68940 -58.63972 2984 ft 212 kts 317°
2026-04-24 00:13 -34.67901 -58.65214 2978 ft 212 kts 316°
2026-04-24 00:14 -34.66852 -58.66467 2971 ft 211 kts 317°
2026-04-24 00:14 -34.65801 -58.67720 2980 ft 211 kts 317°
2026-04-24 00:14 -34.64727 -58.69001 2549 ft 224 kts 317°
2026-04-24 00:14 -34.63662 -58.70217 2162 ft 198 kts 320°
2026-04-24 00:15 -34.62665 -58.71253 2000 ft 178 kts 322°
2026-04-24 00:15 -34.61765 -58.72182 2003 ft 164 kts 321°
2026-04-24 00:15 -34.60946 -58.73164 1888 ft 161 kts 315°
2026-04-24 00:15 -34.60197 -58.74134 1875 ft 157 kts 315°
2026-04-24 00:16 -34.59435 -58.75119 1913 ft 163 kts 315°
2026-04-24 00:16 -34.58645 -58.76150 1964 ft 170 kts 314°
2026-04-24 00:16 -34.57794 -58.77115 2159 ft 164 kts 332°
2026-04-24 00:16 -34.56699 -58.77327 2293 ft 164 kts 12°
2026-04-24 00:17 -34.55672 -58.76734 2260 ft 166 kts 38°
2026-04-24 00:17 -34.54921 -58.75692 2238 ft 163 kts 59°
2026-04-24 00:17 -34.54371 -58.74460 2068 ft 170 kts 60°
2026-04-24 00:17 -34.53790 -58.73173 1805 ft 173 kts 59°
2026-04-24 00:18 -34.53172 -58.71945 1911 ft 172 kts 54°
2026-04-24 00:18 -34.52428 -58.70719 1969 ft 189 kts 49°
2026-04-24 00:18 -34.51534 -58.69472 1982 ft 200 kts 48°
2026-04-24 00:18 -34.50705 -58.68104 1983 ft 206 kts 63°
2026-04-24 00:19 -34.50151 -58.66463 1895 ft 213 kts 66°
2026-04-24 00:19 -34.49534 -58.64859 1787 ft 190 kts 63°
2026-04-24 00:19 -34.48968 -58.63637 1449 ft 157 kts 53°
2026-04-24 00:19 -34.48321 -58.62645 1113 ft 137 kts 52°
2026-04-24 00:20 -34.47789 -58.61842 837 ft 113 kts 45°
2026-04-24 00:20 -34.47251 -58.61187 490 ft 107 kts 44°
2026-04-24 00:20 -34.46717 -58.60576 266 ft 109 kts 41°
2026-04-24 00:20 -34.46130 -58.59903 124 ft 121 kts 45°
2026-04-24 00:21 -34.45575 -58.59232 28 ft 103 kts 45°
2026-04-24 00:21 -34.45116 -58.58693 23 ft 72 kts 41°
2026-04-24 00:21 -34.44869 -58.58402 22 ft 29 kts 50°
2026-04-24 00:21 -34.44901 -58.58278 22 ft 10 kts 147°
2026-04-24 00:22 -34.44953 -58.58239 22 ft 14 kts 148°
2026-04-24 00:22 -34.45097 -58.58135 22 ft 29 kts 150°
2026-04-24 00:22 -34.45275 -58.58009 22 ft 29 kts 149°
2026-04-24 00:22 -34.45357 -58.58037 22 ft 14 kts 241°
2026-04-24 00:23 -34.45409 -58.58153 22 ft 17 kts 242°
2026-04-24 00:23 -34.45465 -58.58288 22 ft 19 kts 243°
2026-04-24 00:23 -34.45514 -58.58400 22 ft 6 kts 241°
2026-04-24 00:23 -34.45556 -58.58394 22 ft 5 kts 168°
2026-04-24 00:24 -34.45563 -58.58400 22 ft 0 kts 244°